Regional Weather Roundup
Issued by NWS Jackson, KY

Home | Current Version | Previous Version | Graphics & Text | Print | Product List | Glossary On
Versions: 1 2 3 4 5 6 7 8 9 10 11 12 13 14 15 16 17 18 19 20 21 22 23 24 25 26 27 28 29 30 31 32 33 34 35 36 37 38 39 40 41 42 43 44 45 46 47 48 49 50
000
ASUS43 KJKL 041210
RWRJKL

EAST KENTUCKY HOURLY WEATHER ROUNDUP
NATIONAL WEATHER SERVICE JACKSON KY
700 AM EST WED MAR 04 2015

NOTE: "FAIR" INDICATES FEW OR NO CLOUDS BELOW 12,000 FEET WITH
NO SIGNIFICANT WEATHER AND/OR OBSTRUCTIONS TO VISIBILITY.

* THESE REPORTS ARE NOT UNDER NWS QUALITY CONTROL AND MAY NOT
  REPORT WEATHER SUCH AS PRECIPITATION AND FOG.

KYZ079-080-083-085-087-088-110-112-115-119-120-041300
...EASTERN KENTUCKY...

CITY           SKY/WX    TMP DP  RH WIND       PRES   REMARKS
JACKSON        LGT RAIN  48  46  93 CALM      29.93R
6HR MIN TEMP:  48; 6HR MAX TEMP:  57; 6HR PCP:  0.67;

LONDON         LGT RAIN  51  47  86 NE6       29.92R
6HR MIN TEMP:  51; 6HR MAX TEMP:  62; 6HR PCP:  0.31;

SOMERSET*      CLOUDY    46  46 100 W3        29.95R
MONTICELLO*    CLOUDY    52  50  93 NE5       29.96R
6HR MIN TEMP:  52; 6HR MAX TEMP:  64; 6HR PCP:  0.13;

MIDDLESBORO*   DRIZZLE   55  55 100 S5        29.90R
6HR MIN TEMP:  47; 6HR MAX TEMP:  58; 6HR PCP:  0.18;

HAZARD APT*    RAIN      50  50 100 NW3       29.94R
BLACK MTN*       N/A     48  48 100 SW7         N/A
PIKEVILLE APT* HVY RAIN  48  48 100 N8        29.93R
BIG SANDY*     DRIZZLE   49  48  98 N5        29.92S
6HR MIN TEMP:  49; 6HR MAX TEMP:  59;

MOREHEAD APT*  LGT RAIN  43  41  93 S3        29.94R VSB 1/2
$$

KYZ035-036-041-042-044-050-067-078-099-041300
...CENTRAL KENTUCKY...

CITY           SKY/WX    TMP DP  RH WIND       PRES   REMARKS
MT STERLING*   LGT RAIN  43  43 100 CALM      29.95R
FLEMING/MASON* RAIN      39  39 100 CALM      29.94R VSB 1/4
DANVILLE*      LGT RAIN  43  43 100 CALM      29.93S
RICHMOND*      CLOUDY    45  43  93 CALM      29.92S
LEXINGTON      HVY RAIN  41  40  96 CALM      29.93R FOG
6HR MIN TEMP:  41; 6HR MAX TEMP:  48; 6HR PCP:  0.83;

FRANKFORT      RAIN      41  40  96 CALM      29.92R FOG
6HR MIN TEMP:  41; 6HR MAX TEMP:  46; 6HR PCP:  0.67;

$$

KYZ091>093-OHZ055-061-077-WVZ005-015-034-035-042-041300
...SOUTHERN OHIO/WEST VIRGINIA...

CITY           SKY/WX    TMP DP  RH WIND       PRES   REMARKS
COVINGTON      LGT RAIN  36  35  96 CALM      29.92R FOG
COLUMBUS       LGT RAIN  34  34 100 W6        29.91R WCI  29
DAYTON         CLOUDY    34  32  92 W3        29.90S
WILMINGTON     LGT RAIN  34  33  96 CALM      29.90S FOG
HUNTINGTON     RAIN      43  43 100 CALM      29.92F FOG
CHARLESTON     RAIN      47  46  97 VRB5      29.93R FOG
PINEVILLE*     MIX PCPN  41  41 100 MISG      29.95S VSB 3/4
BECKLEY        LGT RAIN  46  45  96 N5        29.89S FOG
BLUEFIELD      LGT RAIN  53  49  86 NW5       29.90S FOG
$$

VAZ002-007-008-TNZ017-027-036-066-071-041300
...SOUTHWEST VIRGINIA/EAST TENNESSEE...

CITY           SKY/WX    TMP DP  RH WIND       PRES   REMARKS
WISE*          DRIZZLE   52  52 100 SW16G23   29.90F
JONESVILLE*    LGT RAIN  39  39 100 CALM      29.93S VSB 1/4
ABINGDON*      DRZL/FOG  48  48 100 W3        29.92S VSB 1
BRISTOL        LGT RAIN  46  46 100 CALM      29.93S VSB 1/2
KNOXVILLE      CLOUDY    62  59  90 SW20      29.92R
OAK RIDGE      CLOUDY    56  54  93 VRB6      29.95R
CROSSVILLE     CLOUDY    61  58  90 SW10G17   29.92S
NASHVILLE      RAIN      51  50  96 NE7       29.90S FOG
$$

...KEY TO REMARKS...
VSB - VISIBILITY IN MILES
WCI - WIND CHILL INDEX
HX  - HEAT INDEX

$$


USA.gov is the U.S. government's official web portal to all federal, state and local government web resources and services.